Weather History for Algona, IA

Change the Weather History Date:

Tuesday, June 25, 2013

  Actual Average Record
Temperature  
Mean Temperature 77 °F -  
Max Temperature 86 °F 80 °F 93 °F (2001)
Min Temperature 68 °F 59 °F 42 °F (2004)
Cooling Degree Days 12    
Growing Degree Days 27 (Base 50)    
Moisture  
Dew Point 70 °F    
Average Humidity 82    
Maximum Humidity 100    
Minimum Humidity 51    
Precipitation  
Precipitation 0.00 in - - ()
Sea Level Pressure  
Sea Level Pressure 29.77 in    
Wind  
Wind Speed 10 mph (SSE)    
Max Wind Speed 21 mph    
Max Gust Speed 30 mph    
Visibility 9 miles    
Events      
Averages and records for this station are not official NWS values.
T = Trace of Precipitation, MM = Missing Value Source: NWS Daily Summary

Daily Weather History Graph

Daily Weather History Graph

Search for Another Location

Airport:

Trip Planner

Search our weather history database for the weather conditions in past years. The results will help you decide how hot, cold, wet, or windy it might be!

Date:

Astronomy

Jun. 25, 2013 Rise Set
Actual Time 5:38 AM CDT 9:00 PM CDT
Civil Twilight 5:03 AM CDT 9:36 PM CDT
Nautical Twilight 4:17 AM CDT 10:22 PM CDT
Astronomical Twilight 3:20 AM CDT 11:19 PM CDT
Moon 10:41 PM CDT (6/25) 8:24 AM CDT (6/25)
Length of Visible Light 16h 32m
Length of Day
15h 21m
Waning Gibbous, 92% of the Moon is Illuminated
Jun 25
Waning Gibbous
Jun 29
Last Quarter
Jul 8
New
Jul 15
First Quarter
Jul 22
Full

Hourly Weather History & Observations

Time (CDT) Temp. Heat Index Dew Point Humidity Pressure Visibility Wind Dir Wind Speed Gust Speed Precip Events Conditions
12:15 AM 71.6 °F - 68.0 °F 88% 29.81 in 10.0 mi SSE 9.2 mph - N/A   Overcast
12:35 AM 71.6 °F - 68.0 °F 88% 29.80 in 10.0 mi SE 9.2 mph - N/A   Overcast
12:55 AM 69.8 °F - 68.0 °F 94% 29.80 in 10.0 mi SSE 9.2 mph - N/A   Overcast
1:15 AM 69.8 °F - 68.0 °F 94% 29.80 in 10.0 mi SSE 9.2 mph - N/A   Overcast
1:35 AM 69.8 °F - 68.0 °F 94% 29.80 in 10.0 mi SSE 6.9 mph - N/A   Mostly Cloudy
1:55 AM 69.8 °F - 68.0 °F 94% 29.80 in 10.0 mi SE 3.5 mph - N/A   Mostly Cloudy
2:15 AM 69.8 °F - 69.8 °F 100% 29.80 in 10.0 mi East 5.8 mph - N/A   Overcast
2:35 AM 69.8 °F - 69.8 °F 100% 29.80 in 10.0 mi East 3.5 mph - N/A   Overcast
2:55 AM 69.8 °F - 69.8 °F 100% 29.81 in 10.0 mi ENE 4.6 mph - N/A   Overcast
3:15 AM 69.8 °F - 69.8 °F 100% 29.80 in 10.0 mi East 8.1 mph - N/A   Overcast
3:35 AM 69.8 °F - 69.8 °F 100% 29.79 in 10.0 mi East 6.9 mph - N/A   Mostly Cloudy
3:55 AM 69.8 °F - 69.8 °F 100% 29.79 in 10.0 mi East 4.6 mph - N/A   Overcast
4:15 AM 69.8 °F - 69.8 °F 100% 29.79 in 9.0 mi East 6.9 mph - N/A   Mostly Cloudy
4:35 AM 68.0 °F - 68.0 °F 100% 29.79 in 7.0 mi ESE 9.2 mph - N/A   Partly Cloudy
4:55 AM 68.0 °F - 68.0 °F 100% 29.78 in 8.0 mi East 11.5 mph - N/A   Mostly Cloudy
5:15 AM 68.0 °F - 68.0 °F 100% 29.77 in 7.0 mi ESE 10.4 mph - N/A   Mostly Cloudy
5:35 AM 68.0 °F - 68.0 °F 100% 29.80 in 7.0 mi ESE 12.7 mph - N/A   Overcast
5:55 AM 68.0 °F - 68.0 °F 100% 29.79 in 5.0 mi East 11.5 mph 21.9 mph N/A   Overcast
6:15 AM 68.0 °F - 68.0 °F 100% 29.78 in 5.0 mi East 10.4 mph - N/A   Mostly Cloudy
6:35 AM 68.0 °F - 68.0 °F 100% 29.78 in 5.0 mi ENE 9.2 mph - N/A   Partly Cloudy
6:55 AM 68.0 °F - 68.0 °F 100% 29.78 in 5.0 mi East 8.1 mph - N/A   Partly Cloudy
7:15 AM 68.0 °F - 68.0 °F 100% 29.76 in 7.0 mi East 9.2 mph - N/A   Partly Cloudy
7:35 AM 68.0 °F - 68.0 °F 100% 29.76 in 8.0 mi East 9.2 mph - N/A   Clear
7:55 AM 69.8 °F - 68.0 °F 94% 29.77 in 9.0 mi ESE 10.4 mph - N/A   Clear
8:15 AM 69.8 °F - 68.0 °F 94% 29.77 in 10.0 mi ESE 15.0 mph - N/A   Clear
8:35 AM 71.6 °F - 68.0 °F 88% 29.78 in 10.0 mi ESE 12.7 mph 19.6 mph N/A   Clear
8:55 AM 71.6 °F - 68.0 °F 88% 29.80 in 10.0 mi SSE 13.8 mph - N/A   Clear
9:15 AM 71.6 °F - 68.0 °F 88% 29.83 in 10.0 mi SSE 12.7 mph - N/A   Scattered Clouds
9:35 AM 71.6 °F - 69.8 °F 94% 29.83 in 10.0 mi South 9.2 mph - N/A   Mostly Cloudy
9:55 AM 73.4 °F - 69.8 °F 88% 29.82 in 10.0 mi South 12.7 mph - N/A   Scattered Clouds
10:15 AM 75.2 °F - 71.6 °F 89% 29.80 in 10.0 mi SSE 6.9 mph - N/A   Partly Cloudy
10:35 AM 75.2 °F - 71.6 °F 89% 29.78 in 9.0 mi SE 6.9 mph - N/A   Clear
10:55 AM 77.0 °F - 73.4 °F 89% 29.79 in 9.0 mi SSE 6.9 mph - N/A   Clear
11:15 AM 80.6 °F 85.4 °F 73.4 °F 79% 29.78 in 10.0 mi South 13.8 mph - N/A   Clear
11:35 AM 80.6 °F 84.6 °F 71.6 °F 74% 29.77 in 9.0 mi SSE 12.7 mph - N/A   Partly Cloudy
11:55 AM 82.4 °F 87.2 °F 71.6 °F 70% 29.76 in 9.0 mi SSE 12.7 mph - N/A   Partly Cloudy
12:15 PM 82.4 °F 87.2 °F 71.6 °F 70% 29.75 in 9.0 mi SSE 15.0 mph - N/A   Clear
12:35 PM 82.4 °F 88.2 °F 73.4 °F 74% 29.75 in 10.0 mi SSE 13.8 mph - N/A   Clear
12:55 PM 82.4 °F 88.2 °F 73.4 °F 74% 29.76 in 10.0 mi South 16.1 mph - N/A   Clear
1:15 PM 82.4 °F 87.2 °F 71.6 °F 70% 29.77 in 10.0 mi South 19.6 mph - N/A   Partly Cloudy
1:35 PM 82.4 °F 88.2 °F 73.4 °F 74% 29.77 in 9.0 mi South 19.6 mph 29.9 mph N/A   Scattered Clouds
1:55 PM 82.4 °F 87.2 °F 71.6 °F 70% 29.77 in 10.0 mi South 18.4 mph 26.5 mph N/A   Partly Cloudy
2:15 PM 82.4 °F 87.2 °F 71.6 °F 70% 29.77 in 9.0 mi South 20.7 mph 28.8 mph N/A   Partly Cloudy
2:35 PM 82.4 °F 86.3 °F 69.8 °F 66% 29.77 in 10.0 mi South 17.3 mph 25.3 mph N/A   Clear
2:55 PM 84.2 °F 88.4 °F 69.8 °F 62% 29.77 in 10.0 mi South 16.1 mph - N/A   Clear
3:15 PM 86.0 °F 88.2 °F 66.2 °F 51% 29.76 in 10.0 mi South 15.0 mph - N/A   Clear
3:35 PM 86.0 °F 88.2 °F 66.2 °F 51% 29.76 in 10.0 mi SSW 15.0 mph 21.9 mph N/A   Clear
3:55 PM 86.0 °F 90.4 °F 69.8 °F 58% 29.76 in 10.0 mi South 13.8 mph 19.6 mph N/A   Clear
4:15 PM 86.0 °F 90.4 °F 69.8 °F 58% 29.75 in 10.0 mi South 16.1 mph - N/A   Clear
4:35 PM 84.2 °F 88.4 °F 69.8 °F 62% 29.75 in 10.0 mi SSW 13.8 mph 19.6 mph N/A   Clear
4:55 PM 86.0 °F 91.8 °F 71.6 °F 62% 29.74 in 10.0 mi South 11.5 mph - N/A   Clear
5:15 PM 86.0 °F 91.8 °F 71.6 °F 62% 29.74 in 10.0 mi South 12.7 mph - N/A   Clear
5:35 PM 86.0 °F 91.8 °F 71.6 °F 62% 29.73 in 10.0 mi South 12.7 mph - N/A   Clear
5:55 PM 86.0 °F 91.8 °F 71.6 °F 62% 29.73 in 10.0 mi South 13.8 mph - N/A   Clear
6:15 PM 86.0 °F 91.8 °F 71.6 °F 62% 29.73 in 10.0 mi SSE 10.4 mph - N/A   Clear
6:35 PM 84.2 °F 89.6 °F 71.6 °F 66% 29.72 in 10.0 mi SSE 11.5 mph - N/A   Clear
6:55 PM 84.2 °F 89.6 °F 71.6 °F 66% 29.73 in 10.0 mi SSE 11.5 mph - N/A   Clear
7:15 PM 84.2 °F 90.9 °F 73.4 °F 70% 29.73 in 10.0 mi SSE 11.5 mph - N/A   Clear
7:35 PM 84.2 °F 90.9 °F 73.4 °F 70% 29.72 in 10.0 mi SSE 8.1 mph - N/A   Partly Cloudy
7:55 PM 82.4 °F 87.2 °F 71.6 °F 70% 29.73 in 10.0 mi South 10.4 mph - N/A   Partly Cloudy
8:15 PM 82.4 °F 87.2 °F 71.6 °F 70% 29.73 in 10.0 mi South 8.1 mph - N/A   Clear
8:35 PM 80.6 °F 84.6 °F 71.6 °F 74% 29.73 in 10.0 mi South 8.1 mph - N/A   Scattered Clouds
8:55 PM 80.6 °F 84.6 °F 71.6 °F 74% 29.73 in 10.0 mi South 6.9 mph - N/A   Mostly Cloudy
9:15 PM 78.8 °F - 71.6 °F 78% 29.73 in 9.0 mi SSE 6.9 mph - N/A   Mostly Cloudy
9:35 PM 80.6 °F 84.6 °F 71.6 °F 74% 29.73 in 10.0 mi SSE 9.2 mph - N/A   Overcast
9:55 PM 78.8 °F - 71.6 °F 78% 29.73 in 10.0 mi SSE 8.1 mph - N/A   Overcast
10:15 PM 78.8 °F - 71.6 °F 78% 29.74 in 10.0 mi SSE 9.2 mph - N/A   Mostly Cloudy
10:35 PM 78.8 °F - 71.6 °F 78% 29.74 in 10.0 mi SSE 9.2 mph - N/A   Mostly Cloudy
10:55 PM 77.0 °F - 71.6 °F 83% 29.73 in 10.0 mi SSE 9.2 mph - N/A   Mostly Cloudy
11:15 PM 77.0 °F - 73.4 °F 89% 29.72 in 10.0 mi SSE 9.2 mph - N/A   Mostly Cloudy
11:35 PM 77.0 °F - 73.4 °F 89% 29.72 in 10.0 mi SSE 9.2 mph - N/A   Scattered Clouds
11:55 PM 77.0 °F - 73.4 °F 89% 29.71 in 10.0 mi SSE 8.1 mph - N/A   Clear